Regional Weather Roundup
Issued by NWS Mt. Holly, NJ

Home | Current Version | Previous Version | Text Only | Print | Product List | Glossary On
Versions: 1 2 3 4 5 6 7 8 9 10 11 12 13 14 15 16 17 18 19 20 21 22 23 24 25 26 27 28 29 30 31 32 33 34 35 36 37 38 39 40 41 42 43 44 45 46 47 48 49 50
000
ASUS41 KPHI 270912
RWRPHI

REGIONAL WEATHER ROUNDUP
NATIONAL WEATHER SERVICE MOUNT HOLLY NJ
500 AM EDT THU APR 27 2017

NOTE:  "FAIR" INDICATES FEW OR NO CLOUDS BELOW 12,000 FEET WITH NO
SIGNIFICANT WEATHER AND/OR OBSTRUCTIONS TO VISIBILITY.

 * = STATION DOES NOT REPORT PRECIPITATION (E.G. RAIN, SNOW, ETC.)
        OR FOG.

NJZ015>026-271000-
SOUTHERN NEW JERSEY

CITY           SKY/WX    TMP DP  RH WIND       PRES   REMARKS
POMONA         CLOUDY    57  54  89 CALM      29.86S FOG
WILDWOOD*      PTCLDY    54  54 100 SE5       29.87S FOG
MILLVILLE      CLOUDY    58  58 100 SE3       29.86R FOG
WRIGHTSTOWN    CLOUDY    58  57  96 S5        29.84R
MOUNT HOLLY    CLOUDY    58  57  97 CALM      29.85S
TRENTON        CLOUDY    60  57  89 CALM      29.85R

$$
NJZ001>014-271000-
NORTHERN NEW JERSEY

CITY           SKY/WX    TMP DP  RH WIND       PRES   REMARKS
SUSSEX         CLOUDY    57  57 100 CALM      29.86S FOG
ANDOVER*         N/A     57  56  96 CALM      29.85S
MORRISTOWN     CLOUDY    57  57 100 CALM      29.86S FOG
NEWARK         DRIZZLE   59  58  96 CALM      29.85S FOG
TETERBORO      DRIZZLE   60  59  96 CALM      29.85R FOG
CALDWELL       CLOUDY    58  58 100 CALM      29.86R FOG
SOMERVILLE     CLOUDY    59  58  96 CALM      29.84S FOG
ALLAIRE*       CLOUDY    58  57  97 S3        29.88R FOG
TOMS RIVER*    CLOUDY    58  56  93 E3        29.87S

$$
PAZ043-044-047-054-055-060>062-066>071-271000-
EASTERN PENNSYLVANIA

CITY           SKY/WX    TMP DP  RH WIND       PRES   REMARKS
PHILADELPHIA   NOT AVBL
NORTH PHILA    CLOUDY    61  58  90 SE3       29.87R
BLUE BELL*     CLOUDY    57  57 100 CALM      29.87R
DOYLESTOWN     CLOUDY    59  57  93 CALM      29.84S
QUAKERTOWN*    CLOUDY    59  57  94 CALM      29.85S
PERKASIE*      CLOUDY    57  57 100 CALM      29.86R
POTTSTOWN      CLOUDY    58  56  93 CALM      29.86R
LANCASTER      FOG       53  53 100 CALM      29.84R VSB 1/4
COATESVILLE    CLOUDY    59  57  94 CALM      29.86S FOG
READING        CLOUDY    61  59  93 S5        29.83S
ALLENTOWN      CLOUDY    62  55  77 CALM      29.84S
MOUNT POCONO   CLOUDY    54  54 100 S3        29.85S FOG
HAZLETON       CLOUDY    57  55  94 SE5       29.87R FOG
LEHIGHTON      CLOUDY    59  57  94 CALM      29.85S
WILKES BARRE   CLOUDY    57  55  93 CALM      29.83R

$$
DEZALL-MDZ008-012-015-019-020-271000-
DELAWARE AND EASTERN MARYLAND

CITY           SKY/WX    TMP DP  RH WIND       PRES   REMARKS
WILMINGTON     CLOUDY    59  58  96 S5        29.85S FOG
DOVER          MOCLDY    57  57 100 SE6       29.84R HAZE
GEORGETOWN     CLOUDY    57  56  96 SE3       29.86S FOG
EASTON         CLEAR     58  56  94 SE3       29.87S FOG
PATUXENT       CLEAR     59  59 100 SE6       29.81S
OCEAN CITY     MOCLDY    53  52  96 CALM      29.85F FOG
WALLOPS ISLAND CLOUDY    57  57 100 S3        29.85S
CAMBRIDGE        N/A     55  55 100 SE7       29.82F
SALISBURY      CLOUDY    55  55 100 E3        29.84S

$$
PAZ001-021-NYZ056-072-MDZ011-DCZ001-271000-
OTHER NEARBY LOCATIONS

CITY           SKY/WX    TMP DP  RH WIND       PRES   REMARKS
HARRISBURG     FOG       55  55 100 SE5       29.82S VSB 1/8
STATE COLLEGE  MOCLDY    58  56  91 SW3       29.80R
WILLIAMSPORT   CLOUDY    61  56  83 E5        29.79S
BINGHAMTON     CLOUDY    55  54  96 SE8       29.82R
NEW YORK CITY  CLOUDY    59  58  96 CALM      29.88S FOG
BALTIMORE      MOCLDY    55  55 100 E3        29.82S FOG
WASHINGTON DC  PTCLDY    59  58  96 E5        29.82S

$$



USA.gov is the U.S. government's official web portal to all federal, state and local government web resources and services.